When you browse on this site, cookies collect data to enhance your experience and personalize the content and advertising you see.
Visit our Privacy Policy to learn more. By continuing to use the site, you agree to this use of cookies and data.
  • In Czech Republic
  • List of Countries
  • For 7 days
  • Water Temperature
  • Satellite Maps
  • Weather Map
  • Weather Widgets
  • user-avatar
    Login

    Hourly Weather Watertown

    Today, 20 July, Saturday

    Time Temperature Precipitation Wind Pressure Humidity
    00:00 +29°C° 0 mm 5 mps 733 mmHg 95%
    01:00 +28°C° 0 mm 5 mps 733 mmHg 96%
    02:00 +28°C° 0 mm 5 mps 733 mmHg 96%
    03:00 +28°C° 0 mm 4 mps 733 mmHg 97%
    04:00 +28°C° 0 mm 4 mps 733 mmHg 97%
    05:00 +28°C° 0 mm 4 mps 733 mmHg 96%
    06:00 +28°C° 0 mm 4 mps 733 mmHg 96%
    07:00 +29°C° 0 mm 4 mps 734 mmHg 95%
    08:00 +29°C° 0 mm 4 mps 734 mmHg 93%
    09:00 +30°C° 0 mm 4 mps 734 mmHg 92%
    10:00 +29°C° 1.7 mm 5 mps 734 mmHg 92%
    11:00 +28°C° 1.7 mm 5 mps 735 mmHg 91%
    12:00 +28°C° 1.7 mm 6 mps 735 mmHg 91%
    13:00 +27°C° 2.5 mm 4 mps 735 mmHg 90%
    14:00 +27°C° 2.5 mm 3 mps 735 mmHg 89%
    15:00 +26°C° 2.5 mm 2 mps 734 mmHg 88%
    16:00 +26°C° 0.5 mm 2 mps 735 mmHg 89%
    17:00 +26°C° 0.5 mm 2 mps 735 mmHg 90%
    18:00 +27°C° 0.5 mm 2 mps 735 mmHg 92%
    19:00 +26°C° 0.3 mm 3 mps 735 mmHg 92%
    20:00 +24°C° 0.3 mm 3 mps 736 mmHg 92%
    21:00 +22°C° 0.3 mm 3 mps 736 mmHg 92%
    22:00 +22°C° 1.3 mm 3 mps 736 mmHg 93%
    23:00 +21°C° 1.3 mm 2 mps 736 mmHg 94%

    Tomorrow, 21 July, Sunday

    Time Temperature Precipitation Wind Pressure Humidity
    00:00 +21°C° 1.3 mm 2 mps 736 mmHg 96%
    01:00 +20°C° 1 mm 2 mps 736 mmHg 96%
    02:00 +20°C° 1 mm 2 mps 736 mmHg 96%
    03:00 +20°C° 1 mm 2 mps 737 mmHg 96%
    04:00 +20°C° 0.2 mm 2 mps 737 mmHg 95%
    05:00 +20°C° 0.2 mm 2 mps 737 mmHg 95%
    06:00 +20°C° 0.2 mm 2 mps 737 mmHg 95%
    07:00 +21°C° 0.1 mm 2 mps 738 mmHg 90%
    08:00 +24°C° 0.1 mm 2 mps 738 mmHg 85%
    09:00 +25°C° 0.1 mm 2 mps 738 mmHg 80%
    10:00 +26°C° 0 mm 3 mps 738 mmHg 76%
    11:00 +26°C° 0 mm 3 mps 738 mmHg 72%
    12:00 +27°C° 0 mm 3 mps 738 mmHg 68%
    13:00 +27°C° 0 mm 3 mps 738 mmHg 69%
    14:00 +27°C° 0 mm 3 mps 738 mmHg 71%
    15:00 +27°C° 0 mm 3 mps 737 mmHg 72%
    16:00 +26°C° 0 mm 3 mps 737 mmHg 76%
    17:00 +25°C° 0 mm 3 mps 737 mmHg 79%
    18:00 +24°C° 0 mm 2 mps 737 mmHg 82%
    19:00 +23°C° 0 mm 2 mps 737 mmHg 81%
    20:00 +20°C° 0 mm 2 mps 738 mmHg 81%
    21:00 +19°C° 0 mm 2 mps 738 mmHg 80%
    22:00 +18°C° 0 mm 2 mps 737 mmHg 77%
    23:00 +18°C° 0 mm 2 mps 737 mmHg 74%

    Day after tomorrow, 22 July, Monday

    Time Temperature Precipitation Wind Pressure Humidity
    00:00 +18°C° 0 mm 2 mps 737 mmHg 72%
    01:00 +18°C° 0 mm 2 mps 737 mmHg 74%
    02:00 +17°C° 0 mm 2 mps 737 mmHg 76%
    03:00 +17°C° 0 mm 3 mps 738 mmHg 78%
    04:00 +17°C° 0 mm 3 mps 738 mmHg 81%
    05:00 +17°C° 0 mm 3 mps 738 mmHg 84%
    06:00 +17°C° 0 mm 3 mps 739 mmHg 86%
    07:00 +18°C° 0.1 mm 3 mps 739 mmHg 85%
    08:00 +18°C° 0.1 mm 3 mps 739 mmHg 84%
    09:00 +18°C° 0.1 mm 4 mps 739 mmHg 84%
    10:00 +19°C° 0 mm 3 mps 739 mmHg 78%
    11:00 +20°C° 0 mm 3 mps 739 mmHg 73%
    12:00 +23°C° 0 mm 2 mps 739 mmHg 68%
    13:00 +22°C° 0 mm 3 mps 739 mmHg 67%
    14:00 +24°C° 0 mm 3 mps 739 mmHg 66%
    15:00 +25°C° 0 mm 4 mps 739 mmHg 66%
    16:00 +24°C° 0 mm 3 mps 739 mmHg 70%
    17:00 +24°C° 0 mm 3 mps 739 mmHg 74%
    18:00 +24°C° 0 mm 2 mps 739 mmHg 79%
    19:00 +21°C° 0 mm 2 mps 739 mmHg 81%
    20:00 +19°C° 0 mm 3 mps 739 mmHg 83%
    21:00 +18°C° 0 mm 3 mps 739 mmHg 85%
    22:00 +17°C° 0 mm 3 mps 739 mmHg 86%
    23:00 +17°C° 0 mm 3 mps 739 mmHg 88%

    23 July, Tuesday

    Time Temperature Precipitation Wind Pressure Humidity
    00:00 +16°C° 0 mm 3 mps 739 mmHg 89%
    01:00 +16°C° 0 mm 3 mps 739 mmHg 90%
    02:00 +16°C° 0 mm 3 mps 739 mmHg 90%
    03:00 +14°C° 0 mm 3 mps 739 mmHg 91%
    04:00 +16°C° 0 mm 2 mps 740 mmHg 91%
    05:00 +16°C° 0 mm 2 mps 740 mmHg 91%
    06:00 +16°C° 0 mm 2 mps 740 mmHg 90%
    07:00 +18°C° 0 mm 2 mps 740 mmHg 86%
    08:00 +20°C° 0 mm 2 mps 740 mmHg 82%
    09:00 +22°C° 0 mm 3 mps 740 mmHg 77%
    10:00 +24°C° 0.9 mm 3 mps 740 mmHg 76%
    11:00 +25°C° 0.9 mm 4 mps 740 mmHg 74%
    12:00 +25°C° 0.9 mm 4 mps 740 mmHg 72%
    13:00 +25°C° 0.6 mm 4 mps 739 mmHg 72%
    14:00 +26°C° 0.6 mm 4 mps 739 mmHg 73%
    15:00 +26°C° 0.6 mm 4 mps 739 mmHg 74%
    16:00 +25°C° 0.2 mm 4 mps 739 mmHg 77%
    17:00 +24°C° 0.2 mm 3 mps 739 mmHg 80%
    18:00 +24°C° 0.2 mm 3 mps 739 mmHg 84%
    19:00 +22°C° 0 mm 3 mps 739 mmHg 85%
    20:00 +20°C° 0 mm 3 mps 739 mmHg 85%
    21:00 +19°C° 0 mm 4 mps 739 mmHg 86%
    22:00 +18°C° 0 mm 3 mps 739 mmHg 88%
    23:00 +18°C° 0 mm 3 mps 739 mmHg 90%

    24 July, Wednesday

    Time Temperature Precipitation Wind Pressure Humidity
    00:00 +17°C° 0 mm 3 mps 739 mmHg 92%
    01:00 +17°C° 0 mm 3 mps 739 mmHg 92%
    02:00 +17°C° 0 mm 3 mps 739 mmHg 93%
    03:00 +17°C° 0 mm 3 mps 739 mmHg 93%
    04:00 +17°C° 0 mm 3 mps 739 mmHg 94%
    05:00 +17°C° 0 mm 3 mps 739 mmHg 94%
    06:00 +17°C° 0 mm 3 mps 739 mmHg 95%
    07:00 +19°C° 0 mm 3 mps 739 mmHg 90%
    08:00 +21°C° 0 mm 3 mps 740 mmHg 85%
    09:00 +22°C° 0 mm 3 mps 740 mmHg 80%
    10:00 +24°C° 0.1 mm 2 mps 740 mmHg 75%
    11:00 +25°C° 0.1 mm 2 mps 740 mmHg 70%
    12:00 +26°C° 0.1 mm 2 mps 740 mmHg 65%
    13:00 +27°C° 0.6 mm 2 mps 740 mmHg 66%
    14:00 +27°C° 0.6 mm 2 mps 740 mmHg 67%
    15:00 +27°C° 0.6 mm 2 mps 740 mmHg 68%
    16:00 +26°C° 0.4 mm 2 mps 740 mmHg 73%
    17:00 +25°C° 0.4 mm 2 mps 740 mmHg 78%
    18:00 +25°C° 0.4 mm 2 mps 740 mmHg 83%
    19:00 +23°C° 0.1 mm 2 mps 740 mmHg 84%
    20:00 +20°C° 0.1 mm 2 mps 740 mmHg 86%
    21:00 +20°C° 0.1 mm 1 mps 740 mmHg 88%
    22:00 +19°C° 0 mm 1 mps 740 mmHg 89%
    23:00 +18°C° 0 mm 2 mps 740 mmHg 90%

    25 July, Thursday

    Time Temperature Precipitation Wind Pressure Humidity
    00:00 +18°C° 0 mm 2 mps 740 mmHg 91%
    01:00 +17°C° 0 mm 2 mps 740 mmHg 92%
    02:00 +18°C° 0 mm 1 mps 740 mmHg 92%
    03:00 +18°C° 0 mm 1 mps 740 mmHg 93%
    04:00 +18°C° 0 mm 1 mps 740 mmHg 93%
    05:00 +19°C° 0 mm 1 mps 741 mmHg 93%
    06:00 +19°C° 0 mm 1 mps 741 mmHg 93%
    07:00 +21°C° 0 mm 1 mps 741 mmHg 89%
    08:00 +21°C° 0 mm 2 mps 741 mmHg 84%
    09:00 +24°C° 0 mm 2 mps 742 mmHg 79%
    10:00 +25°C° 0 mm 2 mps 742 mmHg 76%
    11:00 +26°C° 0 mm 2 mps 741 mmHg 72%
    12:00 +27°C° 0 mm 2 mps 741 mmHg 69%
    13:00 +27°C° 0.2 mm 3 mps 741 mmHg 71%
    14:00 +27°C° 0.2 mm 3 mps 741 mmHg 72%
    15:00 +27°C° 0.2 mm 3 mps 741 mmHg 74%
    16:00 +26°C° 0.1 mm 3 mps 741 mmHg 78%
    17:00 +26°C° 0.1 mm 3 mps 741 mmHg 82%
    18:00 +25°C° 0.1 mm 3 mps 741 mmHg 85%
    19:00 +24°C° 0 mm 3 mps 741 mmHg 88%
    20:00 +21°C° 0 mm 3 mps 741 mmHg 91%
    21:00 +20°C° 0 mm 3 mps 741 mmHg 94%
    22:00 +19°C° 0 mm 3 mps 741 mmHg 95%
    23:00 +19°C° 0 mm 3 mps 741 mmHg 96%
    Show more